Airfield :
LOGIN :

Register | Disclaimer

   EN    FR    IT 

 










Legend :    VFR   Marginal VFR   IFR   Intensive IFR   Very Intensive IFR
Visi :
Ceiling :
>= 8 km
>= 3000ft
5 to 8 km
1000 to 3000 ft
1500m to 5 km
500 to 1000 ft
800 to 1500m
200 to 500 ft
< 800m
< 200 ft
Symbols :   Thunderstorms  Fog  Heavy snow  Heavy precipitations  Wind > 20 kt
SIGMETs :     Misc.  Thunderstorms  Icing  Turbulence  Mountain Waves  Volcanic Ashes







- Airport Elevation : 1188 ft


LKLN - Plzen Line

CURRENT METAR :
  • 191200Z AUTO VRB03KT 6000 OVC032 14/09 Q1024

EXPIRED METARs :
  • 191100Z AUTO 07003KT 030V100 5000 BR FEW009 OVC032 12/09 Q1025
  • 191031Z AUTO 04003KT 320V090 5000 BR SCT007 OVC032 12/09 Q1025
  • 191006Z AUTO VRB02KT 4300 BR BKN007 OVC030 11/09 Q1025
  • 191000Z AUTO VRB01KT 3900 BR BKN006 BKN031 11/09 Q1025

TAF N/A
No reported NOTAMs for that airfield.



MET'MAP, your aeronautical weather chart ! - Copyright ORBIFLY December 2007 - Disclaimer

ORBIFLY MET'MAP TEAM :

Programming & Development : Alexandra Zaïnal
Concept & Development : Baudouin d'Aumeries
Co-Development & Prog : Marc-Olivier Méhu
Technical & hardware support : Manuel Goepfert

Contact : metmap@orbifly.com




SOURCES & CREDITS :

   NOAA